(195659) = 2002 NF62 = 2006 FU27 = 2005 AD53

Discovered at Palomar on 2002-07-05 by NEAT.

Orbit

Orbit type: Main Belt

Note: WebGL enabled browser required.

epoch2023-09-13.0
epoch JD2460200.5
perihelion date2022-01-11.68638
perihelion JD2459591.18638
argument of perihelion (°)257.36447
ascending node (°)55.66900
inclination (°)2.63500
eccentricity0.0459093
perihelion distance (AU)2.7168195
Tisserand w.r.t. Jupiter3.3
ΔV w.r.t. Earth (km/sec)10.3
semimajor axis (AU)2.8475484
mean anomaly (°)124.97929
mean daily motion (°/day)0.20511490
aphelion distance (AU)2.978
period (years)4.81
P-vector [x]0.68157347
P-vector [y]-0.65226019
P-vector [z]-0.33168396
Q-vector [x]0.73076419
Q-vector [y]0.63023307
Q-vector [z]0.26227841
absolute magnitude16.26
phase slope0.15
uncertainty0
referenceMPEC 2024-B173
observations used296
oppositions17
arc length (days)8347
first opposition used2001
last opposition used2024
residual rms (arc-secs)0.71
perturbers coarse indicatorM-v
perturbers precise indicator003Ek
first observation date used2001-03-24.0
last observation date used2024-01-30.0
computer nameMPCLINUX
JD of orbit computation2456670.735294
perihelion JD uncertainty (days)2.8026E-04
argument of perihelion uncertainty (°)1.1275E-04
ascending node uncertainty (°)9.7733E-05
inclination uncertainty (°)4.2247E-06
eccentricity uncertainty 4.4465E-08
perihelion distance uncertainty (AU)1.2088E-07
Minimum Orbit Intersection Distances (in AU)
for orbit epoch: 2460200.5, reference: E2024-BH3
Mercury2.27615
Venus1.98861
Earth1.70355
Mars1.27057
Jupiter2.13676
Saturn6.10878
Uranus15.4879
Neptune27.007

Observations

303 total observations over interval: 2001 03 24.42138 – 2024 01 30.188338
These data are available for download (format description).

Date (UT) J2000 RA J2000 Dec Magn Location Ref
2001 03 24.42138 13 01 02.25 -03 28 49.8 21.1 V 691 – Steward Observatory, Kitt Peak-Spacewatch MPS 191969
2001 03 24.44224 13 01 01.26 -03 28 44.3 20.7 V 691 – Steward Observatory, Kitt Peak-Spacewatch MPS 191969
2001 03 24.46345 13 01 00.24 -03 28 38.9 20.9 V 691 – Steward Observatory, Kitt Peak-Spacewatch MPS 191969
2002 06 12.39985 20 02 04.95 -23 29 23.1 20.0 R 644 – Palomar Mountain/NEAT MPS 191969
2002 06 12.42190 20 02 04.39 -23 29 25.9 20.2 R 644 – Palomar Mountain/NEAT MPS 191969
2002 07 02.27593 19 49 43.45 -24 26 50.0 20.4 R 644 – Palomar Mountain/NEAT MPS 191969
2002 07 02.34887 19 49 39.81 -24 27 03.3 20.3 R 644 – Palomar Mountain/NEAT MPS 191969
2002 07 05.31955 19 47 11.70 -24 36 02.7 19.8 R 644 – Palomar Mountain/NEAT MPS 191969
2002 07 05.34087 19 47 10.60 -24 36 06.7 19.8 R 644 – Palomar Mountain/NEAT MPS 191969
2002 07 05.36302 19 47 09.42 -24 36 10.7 20.0 R 644 – Palomar Mountain/NEAT MPS 191969
2002 07 15.22275 19 38 23.57 -25 04 12.4 19.1 R 644 – Palomar Mountain/NEAT MPS 191969
2002 07 15.23168 19 38 23.06 -25 04 13.8 19.5 R 644 – Palomar Mountain/NEAT MPS 191969
2003 10 18.35873 02 25 38.53 +12 48 01.8 20.6 V 291 – LPL/Spacewatch II MPS 191969
2003 10 18.38233 02 25 37.36 +12 47 57.1 20.7 V 291 – LPL/Spacewatch II MPS 191969
2003 10 18.43029 02 25 34.97 +12 47 47.6 20.6 V 291 – LPL/Spacewatch II MPS 191969
2003 11 20.14557 01 58 59.69 +11 00 42.2 19.8 R 695 – Kitt Peak MPS 191969
2003 11 20.23047 01 58 56.28 +11 00 30.1   695 – Kitt Peak MPS 191969
2004 12 13.387967 08 55 53.184 +20 30 13.44 21.19 V 645 – Apache Point-Sloan Digital Sky Survey MPS 390229
2004 12 13.391439 08 55 53.141 +20 30 13.94 22.09   645 – Apache Point-Sloan Digital Sky Survey MPS 390229
2005 01 13.33401 08 38 25.72 +22 09 48.2 20.6 V 691 – Steward Observatory, Kitt Peak-Spacewatch MPS 124850
2005 01 13.36008 08 38 24.34 +22 09 54.4 20.4 V 691 – Steward Observatory, Kitt Peak-Spacewatch MPS 124850
2005 01 13.38562 08 38 22.95 +22 10 00.1 20.8 V 691 – Steward Observatory, Kitt Peak-Spacewatch MPS 124850
2005 01 18.32868 08 34 00.65 +22 28 42.4 21.0 V 691 – Steward Observatory, Kitt Peak-Spacewatch MPS 124850
2005 01 18.36228 08 33 58.68 +22 28 49.6 20.6 V 691 – Steward Observatory, Kitt Peak-Spacewatch MPS 124850
2005 01 18.38862 08 33 57.21 +22 28 55.3 20.3 V 691 – Steward Observatory, Kitt Peak-Spacewatch MPS 124850
2006 03 24.37550 14 18 15.26 -11 45 47.2 20.6 V G96 – Mt. Lemmon Survey MPS 167252
2006 03 24.38184 14 18 15.08 -11 45 46.4 20.5 V G96 – Mt. Lemmon Survey MPS 167252
2006 03 24.38838 14 18 14.90 -11 45 45.6 20.4 V G96 – Mt. Lemmon Survey MPS 167253
2006 03 24.39479 14 18 14.65 -11 45 44.8 20.4 V G96 – Mt. Lemmon Survey MPS 167253
2006 03 25.35990 14 17 45.61 -11 43 30.7 21.0 V 691 – Steward Observatory, Kitt Peak-Spacewatch MPS 167253
2006 03 25.37718 14 17 45.05 -11 43 28.4 21.0 V 691 – Steward Observatory, Kitt Peak-Spacewatch MPS 167253
2006 03 25.39447 14 17 44.49 -11 43 26.2 20.8 V 691 – Steward Observatory, Kitt Peak-Spacewatch MPS 167253
2006 05 22.25558 13 36 10.04 -08 42 24.5 20.9 V G96 – Mt. Lemmon Survey MPS 191969
2006 05 22.26249 13 36 09.82 -08 42 23.6 21.1 V G96 – Mt. Lemmon Survey MPS 191969
2006 05 22.26949 13 36 09.64 -08 42 23.2 20.6 V G96 – Mt. Lemmon Survey MPS 191969
2006 05 22.27647 13 36 09.39 -08 42 22.5 20.4 V G96 – Mt. Lemmon Survey MPS 191969
2008 10 23.31126 03 44 01.04 +19 16 20.5 20.2 V 691 – Steward Observatory, Kitt Peak-Spacewatch MPS 260529
2008 10 23.32888 03 44 00.30 +19 16 19.3 20.5 V 691 – Steward Observatory, Kitt Peak-Spacewatch MPS 260529
2008 10 23.34653 03 43 59.53 +19 16 17.8 20.4 V 691 – Steward Observatory, Kitt Peak-Spacewatch MPS 260529
2008 10 27.28490 03 41 10.15 +19 10 04.5 20.5 V 691 – Steward Observatory, Kitt Peak-Spacewatch MPS 261365
2008 10 27.30257 03 41 09.34 +19 10 02.5 20.5 V 691 – Steward Observatory, Kitt Peak-Spacewatch MPS 261365
2008 10 27.32025 03 41 08.50 +19 10 00.7 20.5 V 691 – Steward Observatory, Kitt Peak-Spacewatch MPS 261365
2008 10 31.23268 03 38 03.87 +19 02 52.3   691 – Steward Observatory, Kitt Peak-Spacewatch MPS 261365
2008 10 31.25037 03 38 02.99 +19 02 49.8   691 – Steward Observatory, Kitt Peak-Spacewatch MPS 261365
2008 10 31.26804 03 38 02.09 +19 02 48.2   691 – Steward Observatory, Kitt Peak-Spacewatch MPS 261365
2010 02 10.15566 09 34 16.93 +18 35 09.5   691 – Steward Observatory, Kitt Peak-Spacewatch MPS 316409
2010 02 10.17336 09 34 15.94 +18 35 14.1   691 – Steward Observatory, Kitt Peak-Spacewatch MPS 316409
2010 02 10.19106 09 34 14.99 +18 35 18.8   691 – Steward Observatory, Kitt Peak-Spacewatch MPS 316409
2010 02 11.515066 09 33 04.495 +18 40 59.92 21.12 g F51 – Pan-STARRS 1, Haleakala MPS 338739
2010 02 11.524314 09 33 03.975 +18 41 02.27 20.95 g F51 – Pan-STARRS 1, Haleakala MPS 338739
2010 02 13.352059 09 31 27.503 +18 48 41.49 21.09 g F51 – Pan-STARRS 1, Haleakala MPS 320491
2010 02 13.362034 09 31 26.961 +18 48 44.06 21.06 g F51 – Pan-STARRS 1, Haleakala MPS 320491
2010 02 19.14627 09 26 25.85 +19 11 20.1   691 – Steward Observatory, Kitt Peak-Spacewatch MPS 316409
2010 02 19.16399 09 26 24.92 +19 11 23.8   691 – Steward Observatory, Kitt Peak-Spacewatch MPS 316409
2010 02 19.18170 09 26 24.01 +19 11 28.3   691 – Steward Observatory, Kitt Peak-Spacewatch MPS 316409
2010 03 18.16771 09 09 01.80 +20 10 25.8 20.6 V G96 – Mt. Lemmon Survey MPS 319112
2010 03 18.17409 09 09 01.65 +20 10 25.5 20.9 V G96 – Mt. Lemmon Survey MPS 319112
2010 03 18.18035 09 09 01.47 +20 10 25.7 20.7 V G96 – Mt. Lemmon Survey MPS 319112
2010 03 18.18676 09 09 01.33 +20 10 26.1 20.7 V G96 – Mt. Lemmon Survey MPS 319112
2011 03 05.48313 15 31 37.66 -17 57 07.0 21.3 V G96 – Mt. Lemmon Survey MPS 374631
2011 03 05.49150 15 31 37.77 -17 57 07.2 21.7 V G96 – Mt. Lemmon Survey MPS 374631
2011 03 05.49977 15 31 37.95 -17 57 08.4 21.8 V G96 – Mt. Lemmon Survey MPS 374631
2011 03 05.50807 15 31 38.10 -17 57 09.8 22.1 V G96 – Mt. Lemmon Survey MPS 374631
2011 05 24.24869 14 57 00.28 -16 33 59.9 20.6 V G96 – Mt. Lemmon Survey MPS 383876
2011 05 24.25521 14 56 59.96 -16 33 58.8 19.8 V G96 – Mt. Lemmon Survey MPS 383876
2011 05 24.26171 14 56 59.60 -16 33 58.2 20.3 V G96 – Mt. Lemmon Survey MPS 383876
2011 05 24.26819 14 56 59.31 -16 33 57.2 20.1 V G96 – Mt. Lemmon Survey MPS 383876
2011 05 25.30194 14 56 10.46 -16 31 27.4 20.2 V G96 – Mt. Lemmon Survey MPS 383876
2011 05 25.31232 14 56 09.96 -16 31 25.7 20.0 V G96 – Mt. Lemmon Survey MPS 383876
2011 05 25.32277 14 56 09.45 -16 31 24.1 20.1 V G96 – Mt. Lemmon Survey MPS 383876
2011 05 25.33322 14 56 08.91 -16 31 22.7 20.2 V G96 – Mt. Lemmon Survey MPS 383876
2012 08 17.44094 22 33 17.586 -13 33 39.18 19.9 w F51 – Pan-STARRS 1, Haleakala MPS 430838
2012 08 17.45522 22 33 16.892 -13 33 43.23 19.9 w F51 – Pan-STARRS 1, Haleakala MPS 430838
2012 08 17.46948 22 33 16.199 -13 33 47.35 20.0 w F51 – Pan-STARRS 1, Haleakala MPS 430838
2012 08 17.48376 22 33 15.503 -13 33 51.37 19.9 w F51 – Pan-STARRS 1, Haleakala MPS 430838
2012 11 02.263537 22 05 14.888 -14 54 16.13 21.3 r F51 – Pan-STARRS 1, Haleakala MPS 441189
2012 11 02.274171 22 05 15.164 -14 54 13.84 21.1 r F51 – Pan-STARRS 1, Haleakala MPS 441189
2013 09 17.44772 04 58 03.22 +22 39 12.9 20.4 V G96 – Mt. Lemmon Survey MPS 478473
2013 09 17.45610 04 58 03.55 +22 39 14.0 20.6 V G96 – Mt. Lemmon Survey MPS 478473
2013 09 17.46030 04 58 03.69 +22 39 14.4 21.6 V G96 – Mt. Lemmon Survey MPS 478473
2013 10 03.46015 05 05 11.44 +23 00 01.9 20.6 V G96 – Mt. Lemmon Survey MPS 479656
2013 10 03.46715 05 05 11.56 +23 00 02.2 20.8 V G96 – Mt. Lemmon Survey MPS 479656
2013 10 03.47421 05 05 11.65 +23 00 02.7 20.4 V G96 – Mt. Lemmon Survey MPS 479656
2013 10 03.48125 05 05 11.75 +23 00 03.2 19.8 V G96 – Mt. Lemmon Survey MPS 479656
2013 11 02.45746 05 01 00.44 +23 19 23.3 20.2 V G96 – Mt. Lemmon Survey MPS 486689
2013 11 02.46474 05 01 00.22 +23 19 23.6 20.4 V G96 – Mt. Lemmon Survey MPS 486689
2013 11 02.47200 05 00 59.93 +23 19 23.7 20.1 V G96 – Mt. Lemmon Survey MPS 486689
2013 11 02.47927 05 00 59.70 +23 19 23.4 20.1 V G96 – Mt. Lemmon Survey MPS 486689
2013 12 02.55875 04 36 21.62 +23 04 32.6 20.4 R D29 – Purple Mountain Observatory, XuYi Station MPS 490751
